Vancouver, WA

1:01 PM PDT on March 23, 2017 (GMT -0700)
Pearson

Weather History for KVUO - April, 2013

Change the Weather History Date:

Friday, April 12, 2013

  Actual Average Record
Temperature  
Mean Temperature 45 °F 51 °F  
Max Temperature 54 °F 61 °F 89 °F (1904)
Min Temperature 35 °F 42 °F 27 °F (1970)
Degree Days  
Heating Degree Days 20    
Month to date heating degree days 161  
Since 1 July heating degree days 3724  
Cooling Degree Days 0    
Month to date cooling degree days 0  
Year to date cooling degree days 0  
Moisture  
Dew Point 39 °F    
Average Humidity 72    
Maximum Humidity 85    
Minimum Humidity 59    
Precipitation  
Precipitation 0.08 in 0.11 in 0.95 in (1955)
Month to date precipitation 1.39 1.22  
Year to date precipitation 7.53 14.32  
Snow  
Snow 0.00 in - - ()
Month to date snowfall 0.0  
Snow Depth 0.00 in    
Sea Level Pressure  
Sea Level Pressure 30.00 in    
Wind  
Wind Speed 3 mph (SW)    
Max Wind Speed 16 mph    
Max Gust Speed 21 mph    
Visibility 10 miles    
Events Rain    
T = Trace of Precipitation, MM = Missing Value Source: NWS Daily Summary

Daily Weather History Graph

Daily Weather History Graph

Search for Another Location

Airport or City:

Trip Planner

Search our weather history database for the weather conditions in past years. The results will help you decide how hot, cold, wet, or windy it might be!

Date:

Astronomy

Apr. 12, 2013 Rise Set
Actual Time 6:29 AM PDT 7:53 PM PDT
Civil Twilight 5:58 AM PDT 8:24 PM PDT
Nautical Twilight 5:21 AM PDT 9:01 PM PDT
Astronomical Twilight 4:42 AM PDT 9:41 PM PDT
Moon 7:36 AM PDT (4/12) 10:37 PM PDT (4/12)
Length of Visible Light 14h 25m
Length of Day
13h 23m
Waxing Crescent, 6% of the Moon is Illuminated
Apr 12
Waxing Crescent
Apr 18
First Quarter
Apr 25
Full
May 2
Last Quarter
May 9
New

Hourly Weather History & Observations

Time (PDT) Temp. Windchill Dew Point Humidity Pressure Visibility Wind Dir Wind Speed Gust Speed Precip Events Conditions
12:53 AM 44.1 °F 41.5 °F 35.1 °F 71% 30.19 in 10.0 mi NW 4.6 mph - N/A   Clear
1:53 AM 43.0 °F 41.3 °F 35.1 °F 74% 30.18 in 10.0 mi NNW 3.5 mph - N/A   Clear
2:53 AM 42.1 °F - 35.1 °F 76% 30.16 in 10.0 mi Calm Calm - N/A   Clear
3:53 AM 41.0 °F - 35.1 °F 79% 30.15 in 10.0 mi Calm Calm - N/A   Clear
4:53 AM 39.9 °F - 35.1 °F 83% 30.14 in 10.0 mi Calm Calm - N/A   Clear
5:53 AM 37.0 °F - 33.1 °F 86% 30.12 in 10.0 mi Calm Calm - N/A   Clear
6:53 AM 37.0 °F - 34.0 °F 89% 30.10 in 10.0 mi Calm Calm - N/A   Clear
7:53 AM 41.0 °F - 36.0 °F 82% 30.09 in 10.0 mi Calm Calm - N/A   Clear
8:53 AM 43.0 °F - 37.0 °F 80% 30.08 in 10.0 mi Calm Calm - N/A   Clear
9:53 AM 45.0 °F - 37.9 °F 76% 30.05 in 10.0 mi Calm Calm - N/A   Partly Cloudy
10:53 AM 48.0 °F - 37.9 °F 68% 30.03 in 10.0 mi Variable 3.5 mph - N/A   Partly Cloudy
11:53 AM 50.0 °F - 39.0 °F 66% 30.00 in 10.0 mi Calm Calm - N/A   Overcast
12:53 PM 52.0 °F - 37.9 °F 59% 29.99 in 10.0 mi Calm Calm - N/A   Overcast
1:53 PM 52.0 °F - 39.9 °F 63% 29.96 in 10.0 mi ESE 4.6 mph - N/A   Overcast
2:53 PM 53.1 °F - 39.0 °F 59% 29.95 in 10.0 mi South 3.5 mph - N/A   Overcast
3:53 PM 52.0 °F - 41.0 °F 66% 29.92 in 10.0 mi WSW 3.5 mph - 0.00 in   Overcast
4:53 PM 51.1 °F - 42.1 °F 71% 29.90 in 10.0 mi SSW 3.5 mph - 0.00 in   Overcast
5:53 PM 52.0 °F - 42.1 °F 69% 29.88 in 10.0 mi SE 3.5 mph - 0.00 in Rain Light Rain
6:53 PM 50.0 °F - 44.1 °F 80% 29.87 in 9.0 mi SSW 5.8 mph - 0.01 in Rain Light Rain
7:07 PM 50.0 °F - 42.8 °F 76% 29.86 in 10.0 mi SSW 5.8 mph - 0.00 in Rain Light Rain
7:53 PM 50.0 °F - 41.0 °F 71% 29.86 in 10.0 mi South 4.6 mph - 0.00 in   Overcast
8:53 PM 48.9 °F - 41.0 °F 74% 29.86 in 10.0 mi South 8.1 mph - N/A   Overcast
9:53 PM 48.0 °F - 43.0 °F 83% 29.87 in 9.0 mi SSW 6.9 mph 16.1 mph N/A   Overcast
10:53 PM 46.9 °F - 43.0 °F 86% 29.90 in 4.0 mi NW 10.4 mph 20.7 mph 0.04 in Rain Rain
11:22 PM 44.6 °F 40.2 °F 41.0 °F 87% 29.91 in 10.0 mi NW 8.1 mph - 0.02 in Rain Light Rain
11:53 PM 45.0 °F 40.1 °F 37.9 °F 76% 29.92 in 10.0 mi WNW 9.2 mph - 0.03 in   Mostly Cloudy